• MPC Preparation (Info)

  • MPEC 2000-G46 : 2000 GU127

    The following Minor Planet Electronic Circular may be linked-to from your own Web pages, but must not otherwise be redistributed electronically.

    A form allowing access to any MPEC is at the bottom of this page.


    Read MPEC 2000-G45 Read MPEC 2000-G47


    M.P.E.C. 2000-G46                                Issued 2000 Apr. 13, 17:02 UT
    
         The Minor Planet Electronic Circulars contain information on unusual
             minor planets and routine data on comets.  They are published
       on behalf of Commission 20 of the International Astronomical Union by the
              Minor Planet Center, Smithsonian Astrophysical Observatory,
                              Cambridge, MA 02138, U.S.A.
    
                 Prepared using the Tamkin Foundation Computer Network
    
                 BMARSDEN@CFA.HARVARD.EDU or GWILLIAMS@CFA.HARVARD.EDU
              URL http://cfa-www.harvard.edu/iau/mpc.html  ISSN 1523-6714
    
                                      2000 GU127
    
    Observations:
         K00GC7U* C2000 04 07.31168 13 59 20.14 +03 27 44.6          17.4 R      699
         K00GC7U  C2000 04 07.32352 13 59 19.40 +03 28 18.1                      699
         K00GC7U  C2000 04 07.33534 13 59 18.74 +03 28 52.3                      699
         K00GC7U  C2000 04 07.34723 13 59 18.00 +03 29 26.4                      699
         K00GC7U  C2000 04 08.44592 13 58 17.54 +04 23 44.8          17.4        704
         K00GC7U  C2000 04 08.46016 13 58 16.63 +04 24 28.6          18.0        704
         K00GC7U  C2000 04 08.47390 13 58 15.90 +04 25 10.9          18.5        704
         K00GC7U  C2000 04 09.00147 13 57 45.84 +04 52 37.2          16.6 R      046
         K00GC7U  C2000 04 09.00339 13 57 45.70 +04 52 43.7                      046
         K00GC7U  C2000 04 09.00448 13 57 45.57 +04 52 46.0                      046
         K00GC7U  C2000 04 09.07500 13 57 40.86 +04 56 31.3                      557
         K00GC7U  C2000 04 09.07662 13 57 40.76 +04 56 36.5                      557
         K00GC7U  C2000 04 09.07825 13 57 40.63 +04 56 41.4                      557
         K00GC7U  C2000 04 09.07990 13 57 40.52 +04 56 46.9                      557
         K00GC7U  C2000 04 09.24267 13 57 32.02 +05 05 36.4          17.0 R      699
         K00GC7U  C2000 04 09.26164 13 57 30.68 +05 06 38.0                      699
         K00GC7U  C2000 04 09.28064 13 57 29.35 +05 07 39.7                      699
         K00GC7U  C2000 04 09.29957 13 57 28.03 +05 08 41.1                      699
         K00GC7U  C2000 04 09.30227 13 57 27.41 +05 08 48.0          17.5 V      739
         K00GC7U  C2000 04 09.30521 13 57 27.24 +05 08 56.7          17.7 V      739
         K00GC7U  C2000 04 09.31028 13 57 26.79 +05 09 14.0          17.8 V      739
         K00GC7U  C2000 04 09.97509 13 56 44.47 +05 45 56.7          17.2 R      046
         K00GC7U  C2000 04 09.97648 13 56 44.33 +05 46 01.7                      046
         K00GC7U  C2000 04 09.97748 13 56 44.27 +05 46 04.7                      046
         K00GC7U  C2000 04 09.97837 13 56 44.20 +05 46 07.6          17.0 R      046
         K00GC7U  C2000 04 10.09584 13 56 35.72 +05 52 46.7                      621
         K00GC7U  C2000 04 10.09676 13 56 35.66 +05 52 49.9                      621
         K00GC7U  C2000 04 10.09767 13 56 35.60 +05 52 53.1          17.4 R      621
         K00GC7U  C2000 04 10.10514 13 56 35.04 +05 53 18.5                      621
         K00GC7U  C2000 04 10.10605 13 56 34.98 +05 53 21.7                      621
         K00GC7U 2C2000 04 11.03715 13 55 30.28 +06 48 07.1          17.7 V      012
         K00GC7U 2C2000 04 11.04469 13 55 29.67 +06 48 34.3          17.6 V      012
         K00GC7U 2C2000 04 11.05028 13 55 29.22 +06 48 55.0          17.6 V      012
         K00GC7U 2C2000 04 11.05763 13 55 28.64 +06 49 21.8          17.7 V      012
         K00GC7U 2C2000 04 11.06464 13 55 28.07 +06 49 46.7          17.9 V      012
         K00GC7U  C2000 04 11.18494 13 55 19.32 +06 57 41.1          17.2 V      860
         K00GC7U  C2000 04 11.19413 13 55 18.36 +06 58 14.2          17.3 V      860
         K00GC7U  C2000 04 11.26454 13 55 14.46 +07 02 07.5          17.6        678
         K00GC7U  C2000 04 11.26612 13 55 14.33 +07 02 12.4          17.7        678
         K00GC7U  C2000 04 11.27127 13 55 13.86 +07 02 32.6          17.9        678
         K00GC7U  C2000 04 11.27280 13 55 13.80 +07 02 38.3          17.7        678
         K00GC7U  C2000 04 11.29273 13 55 12.09 +07 03 51.6          17.6        678
         K00GC7U  C2000 04 11.29425 13 55 11.92 +07 03 57.0          17.3        678
         K00GC7U  C2000 04 11.67846 13 54 41.86 +07 27 57.1          17.4 V      402
         K00GC7U  C2000 04 11.67972 13 54 41.74 +07 28 02.1                      402
         K00GC7U  C2000 04 11.68098 13 54 41.67 +07 28 06.9                      402
         K00GC7U  C2000 04 11.68226 13 54 41.57 +07 28 12.1                      402
         K00GC7U  C2000 04 11.75731 13 54 35.18 +07 32 59.6                      345
         K00GC7U  C2000 04 11.76178 13 54 34.76 +07 33 16.7                      345
         K00GC7U  C2000 04 11.76530 13 54 34.48 +07 33 29.2                      345
         K00GC7U  C2000 04 11.76875 13 54 34.19 +07 33 43.6                      345
         K00GC7U  C2000 04 11.77653 13 54 33.55 +07 34 13.4                      345
         K00GC7U  C2000 04 12.29689 13 53 53.17 +08 07 57.7          17.5 V      854
         K00GC7U  C2000 04 12.29921 13 53 52.96 +08 08 06.3          17.6 V      854
         K00GC7U  C2000 04 12.30126 13 53 52.77 +08 08 14.4          17.5 V      854
         K00GC7U  C2000 04 12.62508 13 53 25.71 +08 29 50.0                      903
         K00GC7U  C2000 04 12.62740 13 53 25.34 +08 30 01.6                      903
         K00GC7U  C2000 04 12.63451 13 53 24.75 +08 30 29.2          17.2 V      903
         K00GC7U  C2000 04 12.65868 13 53 22.50 +08 32 08.9          17.3 V      360
         K00GC7U  C2000 04 12.66111 13 53 22.28 +08 32 18.6                      360
         K00GC7U  C2000 04 12.66354 13 53 22.03 +08 32 28.4                      360
         K00GC7U  C2000 04 13.09086 13 52 44.36 +09 01 41.6                      557
         K00GC7U  C2000 04 13.09214 13 52 44.24 +09 01 46.9                      557
         K00GC7U  C2000 04 13.09343 13 52 44.11 +09 01 52.2          17.4 V      557
    
    Observer details:
    012 Uccle.  Observer T. Pauwels.  0.85-m f/2.5 Schmidt + CCD.
    046 Klet.  Observers J. Ticha, M. Tichy, Z. Moravec.  0.57-m f/5.2 reflector
        + CCD.
    345 Sobaeksan Optical Astronomy Observatory.  Observers J.-W. Lee, S.-L. Kim.
        0.61-m reflector + CCD.
    360 Kuma Kogen.  Observer A. Nakamura.  0.60-m f/6.0 Ritchey-Chretien + CCD.
    402 Dynic Astronomical Observatory.  Observer A. Sugie.  0.60-m f/3.7 reflector
        + CCD.
    557 Ondrejov.  Observer P. Kusnirak.  0.65-m f/3.6 reflector + CCD.
    621 Bergisch Gladbach.  Observer W. Bickel.  0.60-m f/5.2 reflector + CCD.
    678 Fountain Hills.  Observer C. W. Juels.  0.313-m f/5.44 reflector + CCD.
    699 Lowell Observatory-LONEOS.  Observer B. A. Skiff.  Measurer B. W. Koehn.
        0.59-m LONEOS Schmidt + CCD.
    704 Lincoln Laboratory ETS, New Mexico.  Observers M. Blythe, F. Shelly,
        M. Bezpalko, M. Elowitz, R. Huber.  Measurers J. Stuart, H. Viggh,
        R. Sayer, J. B. Evans.  1.0-m f/2.15 reflector + CCD.
    739 Sunflower Observatory, Olathe.  Observer L. Robinson.  0.25-m
        Schmidt-Cassegrain + CCD.
    854 Sabino Canyon Observatory, Tucson.  Observer J. E. McGaha.  0.30-m f/6.1
        Schmidt-Cassegrain + CCD.
    860 Valinhos.  Observer P. R. Holvorcem.  0.36-m f/3.6 Schmidt-Cassegrain
        + CCD.
    903 Fukuchiyama.  Observer M. Yoshimi.  0.25-m f/6.3 Schmidt-Cassegrain + CCD.
    
    Orbital elements:
    2000 GU127
    Epoch 2000 Apr. 6.0 TT = JDT 2451640.5                  Williams
    M 335.16517              (2000.0)            P               Q
    n   0.32516230     Peri.  138.01860     +0.65333079     +0.75684971
    a   2.0944464      Node   172.70701     -0.72740055     +0.63426596
    e   0.7206543      Incl.    8.31981     -0.20987453     +0.15775048
    P   3.03           H   18.6           G   0.15
    From 64 observations 2000 Apr. 7-13.
    
    Ephemeris:
    2000 GU127               a,e,i = 2.09, 0.72, 8                   q = 0.5851
    Date    TT    R. A. (2000) Decl.     Delta      r     Elong.  Phase     V
    2000 04 06    14 00.37   +02 27.9    0.373    1.361   162.6    12.7    17.9
    2000 04 11    13 55.55   +06 46.2    0.312    1.303   162.4    13.5    17.4
    2000 04 16    13 47.84   +12 47.0    0.257    1.244   156.9    18.4    17.1
    2000 04 21    13 35.32   +21 24.8    0.208    1.184   146.3    28.1    16.8
    2000 04 26    13 13.31   +33 56.4    0.169    1.123   130.3    43.1    16.7
    2000 05 01    12 27.04   +51 01.5    0.143    1.061   108.3    64.3    16.8
    2000 05 06    10 17.97   +68 01.0    0.138    1.000    82.3    89.9    17.5
    2000 05 11    06 12.96   +68 57.9    0.154    0.938    58.1   113.9    18.8
    2000 05 16    04 19.53   +58 13.8    0.186    0.877    40.1   132.1    20.6
    
    Gareth V. Williams           (C) Copyright 2000 MPC           M.P.E.C. 2000-G46
    

    Read MPEC 2000-G45 Read MPEC 2000-G47


    MPEC number:

    Enter an MPEC number in one of the following forms:

    • 1997-B01 (the full form)
    • J97B01 (the packed version of the full form)
    • B01 (the abbreviated form)